| time (UTC) | temp F | wind direction | speed MPH | gust MPH | rain 1hr in | rain 24hr in | rain mn in | humidity % | barometer mb |
| 20260507210703 | 66 | 256 | 0.0 | 0.0 | 0.00 | 0.00 | 0.00 | 73 | 1015.1 |
| 20260507210203 | 66 | 6 | 0.0 | 3.0 | 0.00 | 0.00 | 0.00 | 73 | 1014.6 |
| 20260507205704 | 66 | 349 | 0.0 | 2.0 | 0.00 | 0.00 | 0.00 | 74 | 1015.1 |
| 20260507205203 | 66 | 110 | 0.0 | 8.0 | 0.00 | 0.00 | 0.00 | 75 | 1015.1 |
| 20260507204703 | 66 | 342 | 0.0 | 0.0 | 0.00 | 0.00 | 0.00 | 75 | 1015.3 |
| 20260507204203 | 65 | 304 | 0.0 | 0.0 | 0.00 | 0.00 | 0.00 | 74 | 1015.4 |
| 20260507203703 | 65 | 11 | 0.0 | 3.0 | 0.00 | 0.00 | 0.00 | 74 | 1015.2 |
| 20260507203203 | 65 | 349 | 1.0 | 5.0 | 0.00 | 0.00 | 0.00 | 75 | 1015.5 |
| 20260507202704 | 65 | 16 | 0.0 | 0.0 | 0.00 | 0.00 | 0.00 | 75 | 1015.3 |
| 20260507202203 | 65 | 2 | 0.0 | 1.0 | 0.00 | 0.00 | 0.00 | 75 | 1015.3 |
| 20260507201204 | 65 | 20 | 1.0 | 9.0 | 0.00 | 0.00 | 0.00 | 75 | 1015.4 |
| 20260507200704 | 65 | 23 | 0.0 | 8.0 | 0.00 | 0.00 | 0.00 | 75 | 1015.3 |
| 20260507200203 | 65 | 17 | 0.0 | 3.0 | 0.00 | 0.00 | 0.00 | 75 | 1015.1 |
| 20260507195704 | 65 | 25 | 0.0 | 0.0 | 0.00 | 0.00 | 0.00 | 76 | 1015.1 |
| 20260507195203 | 66 | 342 | 0.0 | 0.0 | 0.00 | 0.00 | 0.00 | 75 | 1015.1 |
| 20260507194704 | 66 | 24 | 0.0 | 0.0 | 0.00 | 0.00 | 0.00 | 75 | 1014.9 |
| 20260507194204 | 66 | 94 | 0.0 | 0.0 | 0.00 | 0.00 | 0.00 | 74 | 1015.4 |
| 20260507193704 | 66 | 16 | 0.0 | 0.0 | 0.00 | 0.00 | 0.00 | 73 | 1015.7 |
| 20260507193204 | 66 | 313 | 0.0 | 0.0 | 0.00 | 0.00 | 0.00 | 73 | 1015.9 |
| 20260507192204 | 67 | 331 | 0.0 | 1.0 | 0.00 | 0.00 | 0.00 | 72 | 1015.9 |
| 20260507191703 | 67 | 12 | 0.0 | 3.0 | 0.00 | 0.00 | 0.00 | 71 | 1016.1 |
| 20260507190703 | 68 | 304 | 1.0 | 6.0 | 0.00 | 0.00 | 0.00 | 71 | 1016.4 |
| 20260507190204 | 68 | 272 | 0.0 | 0.0 | 0.00 | 0.00 | 0.00 | 71 | 1016.4 |
| 20260507185703 | 68 | 298 | 0.0 | 0.0 | 0.00 | 0.00 | 0.00 | 72 | 1016.3 |
| 20260507185204 | 68 | 11 | 0.0 | 1.0 | 0.00 | 0.00 | 0.00 | 73 | 1016.2 |
| 20260507184704 | 68 | 26 | 1.0 | 3.0 | 0.00 | 0.00 | 0.00 | 73 | 1016.0 |
| 20260507184203 | 67 | 35 | 0.0 | 0.0 | 0.00 | 0.00 | 0.00 | 74 | 1016.2 |
| 20260507183703 | 67 | 323 | 0.0 | 3.0 | 0.00 | 0.00 | 0.00 | 74 | 1016.0 |
| 20260507183203 | 67 | 21 | 0.0 | 7.0 | 0.00 | 0.00 | 0.00 | 73 | 1016.2 |
| 20260507182204 | 67 | 43 | 0.0 | 6.0 | 0.00 | 0.00 | 0.00 | 74 | 1016.3 |
| 20260507181204 | 66 | 44 | 0.0 | 6.0 | 0.00 | 0.00 | 0.00 | 76 | 1016.4 |
| 20260507175703 | 65 | 318 | 0.0 | 0.0 | 0.00 | 0.00 | 0.00 | 76 | 1016.3 |
| 20260507174703 | 64 | 20 | 0.0 | 0.0 | 0.00 | 0.00 | 0.00 | 79 | 1015.8 |
| 20260507174204 | 64 | 90 | 0.0 | 0.0 | 0.00 | 0.00 | 0.00 | 79 | 1016.5 |
| 20260507173704 | 63 | 342 | 0.0 | 2.0 | 0.00 | 0.00 | 0.00 | 80 | 1016.8 |
| 20260507173203 | 63 | 20 | 0.0 | 9.0 | 0.00 | 0.00 | 0.00 | 80 | 1016.9 |
| 20260507172704 | 62 | 296 | 0.0 | 3.0 | 0.00 | 0.00 | 0.00 | 80 | 1017.1 |
| 20260507172203 | 62 | 348 | 0.0 | 0.0 | 0.00 | 0.00 | 0.00 | 81 | 1017.5 |
| 20260507171704 | 62 | 19 | 0.0 | 1.0 | 0.00 | 0.00 | 0.00 | 80 | 1017.4 |
| 20260507171203 | 62 | 3 | 0.0 | 9.0 | 0.00 | 0.00 | 0.00 | 80 | 1017.5 |
| 20260507170704 | 62 | 356 | 0.0 | 3.0 | 0.00 | 0.00 | 0.00 | 80 | 1017.5 |
| 20260507170203 | 62 | 6 | 1.0 | 7.0 | 0.00 | 0.00 | 0.00 | 81 | 1017.4 |
| 20260507165704 | 61 | 338 | 1.0 | 7.0 | 0.00 | 0.00 | 0.00 | 81 | 1017.6 |
| 20260507165204 | 61 | 337 | 2.0 | 9.0 | 0.00 | 0.00 | 0.00 | 82 | 1017.4 |
| 20260507164704 | 61 | 310 | 0.0 | 2.0 | 0.00 | 0.00 | 0.00 | 82 | 1017.4 |
| 20260507164204 | 61 | 26 | 0.0 | 0.0 | 0.00 | 0.00 | 0.00 | 83 | 1017.7 |
| 20260507163204 | 61 | 328 | 1.0 | 10.0 | 0.00 | 0.00 | 0.00 | 81 | 1017.8 |
| 20260507162703 | 61 | 36 | 0.0 | 1.0 | 0.00 | 0.00 | 0.00 | 82 | 1017.4 |
| 20260507162204 | 61 | 320 | 1.0 | 5.0 | 0.00 | 0.00 | 0.00 | 82 | 1017.5 |
| 20260507161703 | 61 | 342 | 0.0 | 3.0 | 0.00 | 0.00 | 0.00 | 82 | 1017.5 |
| 20260507161204 | 60 | 330 | 0.0 | 3.0 | 0.00 | 0.00 | 0.00 | 83 | 1017.5 |
| 20260507160703 | 60 | 330 | 0.0 | 0.0 | 0.00 | 0.00 | 0.00 | 83 | 1017.5 |
| 20260507160203 | 60 | 268 | 0.0 | 1.0 | 0.00 | 0.00 | 0.00 | 83 | 1017.5 |
| 20260507155704 | 60 | 296 | 0.0 | 3.0 | 0.00 | 0.00 | 0.00 | 83 | 1017.5 |
| 20260507155203 | 60 | 308 | 0.0 | 3.0 | 0.00 | 0.00 | 0.00 | 83 | 1017.6 |
| 20260507154704 | 60 | 313 | 1.0 | 7.0 | 0.00 | 0.00 | 0.00 | 83 | 1017.4 |
| 20260507154203 | 60 | 341 | 0.0 | 1.0 | 0.00 | 0.00 | 0.00 | 84 | 1017.4 |
| 20260507153703 | 60 | 314 | 0.0 | 1.0 | 0.00 | 0.00 | 0.00 | 84 | 1017.4 |
| 20260507153203 | 60 | 312 | 0.0 | 2.0 | 0.00 | 0.00 | 0.00 | 85 | 1017.4 |
| 20260507152703 | 60 | 338 | 0.0 | 2.0 | 0.00 | 0.00 | 0.00 | 85 | 1017.5 |
| 20260507152204 | 60 | 317 | 0.0 | 9.0 | 0.00 | 0.00 | 0.00 | 85 | 1017.7 |
| 20260507151703 | 60 | 356 | 0.0 | 5.0 | 0.00 | 0.00 | 0.00 | 85 | 1017.5 |
| 20260507151204 | 60 | 9 | 0.0 | 1.0 | 0.00 | 0.00 | 0.00 | 86 | 1017.5 |
| 20260507150703 | 60 | 343 | 0.0 | 5.0 | 0.00 | 0.00 | 0.00 | 85 | 1017.7 |
| 20260507150203 | 60 | 5 | 0.0 | 3.0 | 0.00 | 0.00 | 0.00 | 85 | 1017.7 |
| 20260507145203 | 60 | 347 | 0.0 | 3.0 | 0.00 | 0.00 | 0.00 | 85 | 1017.7 |
| 20260507144703 | 60 | 309 | 1.0 | 5.0 | 0.00 | 0.00 | 0.00 | 85 | 1017.8 |
| 20260507144203 | 60 | 7 | 1.0 | 5.0 | 0.00 | 0.00 | 0.00 | 85 | 1017.6 |
| 20260507143703 | 60 | 316 | 0.0 | 10.0 | 0.00 | 0.00 | 0.00 | 85 | 1017.4 |
| 20260507142704 | 60 | 304 | 0.0 | 3.0 | 0.00 | 0.00 | 0.00 | 86 | 1017.2 |
| 20260507142203 | 60 | 2 | 0.0 | 9.0 | 0.00 | 0.00 | 0.00 | 86 | 1017.1 |
| 20260507141703 | 60 | 20 | 1.0 | 6.0 | 0.00 | 0.00 | 0.00 | 86 | 1016.9 |
| 20260507140703 | 60 | 292 | 0.0 | 6.0 | 0.00 | 0.00 | 0.00 | 86 | 1016.8 |
| 20260507140203 | 60 | 25 | 0.0 | 2.0 | 0.00 | 0.00 | 0.00 | 87 | 1016.8 |
| 20260507135704 | 60 | 345 | 1.0 | 5.0 | 0.00 | 0.00 | 0.00 | 87 | 1016.6 |
| 20260507135204 | 60 | 344 | 0.0 | 5.0 | 0.00 | 0.00 | 0.00 | 87 | 1016.8 |
| 20260507134704 | 60 | 350 | 0.0 | 6.0 | 0.00 | 0.00 | 0.00 | 87 | 1017.1 |
| 20260507132704 | 60 | 354 | 0.0 | 0.0 | 0.00 | 0.00 | 0.00 | 88 | 1017.0 |
| 20260507131703 | 60 | 11 | 0.0 | 3.0 | 0.00 | 0.00 | 0.00 | 88 | 1016.7 |
| 20260507131203 | 60 | 344 | 0.0 | 5.0 | 0.00 | 0.00 | 0.00 | 88 | 1016.8 |
| 20260507130703 | 60 | 286 | 0.0 | 3.0 | 0.00 | 0.00 | 0.00 | 87 | 1016.7 |
| 20260507130203 | 60 | 16 | 0.0 | 3.0 | 0.00 | 0.00 | 0.00 | 87 | 1016.7 |
| 20260507125703 | 60 | 49 | 1.0 | 3.0 | 0.00 | 0.00 | 0.00 | 88 | 1016.5 |
| 20260507125203 | 60 | 9 | 0.0 | 3.0 | 0.00 | 0.00 | 0.00 | 88 | 1016.5 |
| 20260507124704 | 60 | 47 | 0.0 | 9.0 | 0.00 | 0.00 | 0.00 | 89 | 1016.6 |
| 20260507124203 | 60 | 322 | 0.0 | 2.0 | 0.00 | 0.00 | 0.00 | 89 | 1016.2 |
| 20260507123704 | 60 | 340 | 0.0 | 3.0 | 0.00 | 0.00 | 0.00 | 90 | 1016.1 |
| 20260507122705 | 60 | 309 | 0.0 | 5.0 | 0.00 | 0.00 | 0.00 | 90 | 1016.2 |
| 20260507121703 | 60 | 277 | 0.0 | 1.0 | 0.00 | 0.00 | 0.00 | 90 | 1016.2 |
| 20260507121203 | 60 | 53 | 0.0 | 1.0 | 0.00 | 0.00 | 0.00 | 90 | 1016.3 |
| 20260507120703 | 60 | 347 | 0.0 | 2.0 | 0.00 | 0.00 | 0.00 | 90 | 1016.1 |
| 20260507115704 | 60 | 0 | 0.0 | 12.0 | 0.00 | 0.00 | 0.00 | 90 | 1015.9 |
| 20260507115204 | 60 | 346 | 0.0 | 1.0 | 0.00 | 0.00 | 0.00 | 90 | 1015.7 |
| 20260507114704 | 60 | 328 | 0.0 | 1.0 | 0.00 | 0.00 | 0.00 | 90 | 1015.7 |
| 20260507114204 | 60 | 271 | 0.0 | 2.0 | 0.00 | 0.00 | 0.00 | 90 | 1015.4 |
| 20260507113704 | 60 | 27 | 0.0 | 3.0 | 0.00 | 0.00 | 0.00 | 90 | 1015.5 |
| 20260507113204 | 60 | 6 | 0.0 | 3.0 | 0.00 | 0.00 | 0.00 | 90 | 1015.6 |
| 20260507112203 | 60 | 325 | 0.0 | 1.0 | 0.00 | 0.00 | 0.00 | 90 | 1015.5 |
| 20260507111704 | 60 | 319 | 1.0 | 9.0 | 0.00 | 0.00 | 0.00 | 90 | 1015.5 |
| 20260507111203 | 60 | 32 | 0.0 | 2.0 | 0.00 | 0.00 | 0.00 | 90 | 1015.4 |
| 20260507110703 | 60 | 339 | 0.0 | 1.0 | 0.00 | 0.00 | 0.00 | 90 | 1015.7 |
| 20260507110203 | 60 | 302 | 0.0 | 2.0 | 0.00 | 0.00 | 0.00 | 90 | 1015.3 |
| 20260507105704 | 60 | 328 | 0.0 | 3.0 | 0.00 | 0.00 | 0.00 | 90 | 1015.3 |
| 20260507105204 | 60 | 307 | 0.0 | 6.0 | 0.00 | 0.00 | 0.00 | 90 | 1014.9 |
| 20260507103704 | 60 | 2 | 0.0 | 6.0 | 0.00 | 0.00 | 0.00 | 89 | 1015.0 |
| 20260507103203 | 60 | 326 | 0.0 | 1.0 | 0.00 | 0.00 | 0.00 | 89 | 1015.2 |
| 20260507102704 | 60 | 14 | 0.0 | 1.0 | 0.00 | 0.00 | 0.00 | 89 | 1015.1 |
| 20260507101704 | 60 | 322 | 0.0 | 2.0 | 0.00 | 0.00 | 0.00 | 88 | 1015.1 |
| 20260507101204 | 60 | 311 | 0.0 | 3.0 | 0.00 | 0.00 | 0.00 | 88 | 1015.1 |
| 20260507100704 | 60 | 47 | 0.0 | 1.0 | 0.00 | 0.00 | 0.00 | 88 | 1015.1 |
| 20260507100204 | 60 | 273 | 0.0 | 3.0 | 0.00 | 0.00 | 0.00 | 88 | 1015.4 |
| 20260507095704 | 61 | 328 | 0.0 | 1.0 | 0.00 | 0.00 | 0.00 | 88 | 1015.1 |
| 20260507095204 | 61 | 297 | 0.0 | 1.0 | 0.00 | 0.00 | 0.00 | 87 | 1015.0 |
| 20260507094704 | 61 | 254 | 0.0 | 0.0 | 0.00 | 0.00 | 0.00 | 87 | 1015.0 |
| 20260507094203 | 61 | 252 | 0.0 | 1.0 | 0.00 | 0.00 | 0.00 | 87 | 1015.0 |
| 20260507093704 | 61 | 11 | 0.0 | 1.0 | 0.00 | 0.00 | 0.00 | 87 | 1014.7 |
| 20260507093204 | 61 | 301 | 0.0 | 0.0 | 0.00 | 0.00 | 0.00 | 87 | 1014.8 |
| 20260507092704 | 61 | 24 | 0.0 | 1.0 | 0.00 | 0.00 | 0.00 | 87 | 1014.8 |
| 20260507092204 | 61 | 352 | 0.0 | 3.0 | 0.00 | 0.00 | 0.00 | 87 | 1014.7 |
| 20260507091703 | 61 | 290 | 0.0 | 3.0 | 0.00 | 0.00 | 0.00 | 87 | 1014.6 |
| 20260507091203 | 61 | 319 | 0.0 | 0.0 | 0.00 | 0.00 | 0.00 | 87 | 1014.5 |
| 20260507090703 | 61 | 336 | 0.0 | 0.0 | 0.00 | 0.00 | 0.00 | 86 | 1014.5 |
| 20260507090203 | 61 | 310 | 0.0 | 0.0 | 0.00 | 0.00 | 0.00 | 86 | 1014.3 |
| 20260507085703 | 61 | 39 | 0.0 | 0.0 | 0.00 | 0.00 | 0.00 | 86 | 1014.2 |
| 20260507085203 | 61 | 32 | 0.0 | 0.0 | 0.00 | 0.00 | 0.00 | 86 | 1014.2 |
| 20260507084703 | 61 | 351 | 0.0 | 1.0 | 0.00 | 0.00 | 0.00 | 86 | 1014.2 |
| 20260507084204 | 61 | 12 | 0.0 | 1.0 | 0.00 | 0.00 | 0.00 | 86 | 1014.1 |
| 20260507083703 | 61 | 306 | 0.0 | 1.0 | 0.00 | 0.00 | 0.00 | 86 | 1014.3 |
| 20260507083204 | 61 | 322 | 0.0 | 0.0 | 0.00 | 0.00 | 0.00 | 86 | 1014.1 |
| 20260507082704 | 61 | 37 | 0.0 | 0.0 | 0.00 | 0.00 | 0.00 | 86 | 1014.4 |
| 20260507082204 | 61 | 36 | 0.0 | 0.0 | 0.00 | 0.00 | 0.00 | 86 | 1014.4 |
| 20260507081703 | 61 | 97 | 0.0 | 0.0 | 0.00 | 0.00 | 0.00 | 86 | 1014.0 |
| 20260507081204 | 61 | 330 | 0.0 | 1.0 | 0.00 | 0.00 | 0.00 | 86 | 1013.9 |
| 20260507080206 | 61 | 321 | 0.0 | 1.0 | 0.00 | 0.00 | 0.00 | 85 | 1014.0 |
| 20260507075704 | 61 | 338 | 0.0 | 0.0 | 0.00 | 0.00 | 0.00 | 85 | 1014.0 |
| 20260507075204 | 61 | 314 | 0.0 | 0.0 | 0.00 | 0.00 | 0.00 | 85 | 1014.1 |
| 20260507074203 | 62 | 344 | 0.0 | 0.0 | 0.00 | 0.00 | 0.00 | 85 | 1014.1 |
| 20260507073704 | 62 | 32 | 0.0 | 2.0 | 0.00 | 0.00 | 0.00 | 85 | 1014.2 |
| 20260507073203 | 62 | 30 | 0.0 | 0.0 | 0.00 | 0.00 | 0.00 | 85 | 1014.3 |
| 20260507072704 | 62 | 310 | 0.0 | 2.0 | 0.00 | 0.00 | 0.00 | 85 | 1014.4 |
| 20260507072203 | 62 | 29 | 0.0 | 2.0 | 0.00 | 0.00 | 0.00 | 85 | 1014.0 |
| 20260507071704 | 62 | 332 | 0.0 | 0.0 | 0.00 | 0.00 | 0.00 | 85 | 1013.9 |
| 20260507071204 | 62 | 310 | 0.0 | 0.0 | 0.00 | 0.00 | 0.00 | 85 | 1014.5 |
| 20260507070203 | 62 | 0 | 1.0 | 6.0 | 0.00 | 0.00 | 0.00 | 85 | 1014.1 |
| 20260507065704 | 62 | 86 | 0.0 | 1.0 | 0.00 | 0.00 | 0.00 | 85 | 1014.3 |
| 20260507065204 | 62 | 28 | 0.0 | 1.0 | 0.00 | 0.00 | 0.00 | 85 | 1014.5 |
| 20260507064704 | 62 | 337 | 0.0 | 1.0 | 0.00 | 0.00 | 0.00 | 85 | 1014.4 |
| 20260507064204 | 62 | 26 | 0.0 | 0.0 | 0.00 | 0.00 | 0.00 | 85 | 1014.5 |
| 20260507063703 | 62 | 337 | 0.0 | 3.0 | 0.00 | 0.00 | 0.00 | 85 | 1013.5 |
| 20260507063203 | 62 | 45 | 0.0 | 3.0 | 0.00 | 0.00 | 0.00 | 85 | 1014.1 |
| 20260507062703 | 62 | 13 | 0.0 | 1.0 | 0.00 | 0.00 | 0.00 | 85 | 1014.1 |
| 20260507062203 | 62 | 166 | 0.0 | 2.0 | 0.00 | 0.00 | 0.00 | 85 | 1014.0 |
| 20260507061704 | 62 | 302 | 0.0 | 1.0 | 0.00 | 0.00 | 0.00 | 85 | 1014.3 |
| 20260507061203 | 62 | 52 | 0.0 | 2.0 | 0.00 | 0.00 | 0.00 | 85 | 1013.6 |
| 20260507060204 | 62 | 357 | 0.0 | 1.0 | 0.00 | 0.00 | 0.00 | 85 | 1013.6 |
| 20260507055704 | 62 | 328 | 0.0 | 0.0 | 0.00 | 0.00 | 0.00 | 85 | 1014.1 |
| 20260507055203 | 62 | 295 | 0.0 | 0.0 | 0.00 | 0.00 | 0.00 | 85 | 1014.0 |
| 20260507054204 | 62 | 5 | 0.0 | 2.0 | 0.00 | 0.00 | 0.00 | 85 | 1014.0 |
| 20260507053204 | 62 | 313 | 0.0 | 1.0 | 0.00 | 0.00 | 0.00 | 85 | 1013.9 |
| 20260507052203 | 62 | 321 | 0.0 | 1.0 | 0.00 | 0.00 | 0.00 | 85 | 1014.2 |
| 20260507051704 | 62 | 298 | 0.0 | 1.0 | 0.00 | 0.00 | 0.00 | 85 | 1014.2 |
| 20260507051204 | 62 | 19 | 0.0 | 1.0 | 0.00 | 0.00 | 0.00 | 85 | 1014.2 |
| 20260507050703 | 62 | 350 | 0.0 | 2.0 | 0.00 | 0.00 | 0.00 | 85 | 1014.0 |
| 20260507050203 | 62 | 334 | 0.0 | 1.0 | 0.00 | 0.00 | 0.00 | 85 | 1014.1 |
| 20260507045703 | 62 | 356 | 0.0 | 1.0 | 0.00 | 0.00 | 0.00 | 85 | 1014.1 |
| 20260507045204 | 62 | 18 | 0.0 | 1.0 | 0.00 | 0.00 | 0.00 | 85 | 1014.1 |
| 20260507044203 | 62 | 330 | 0.0 | 1.0 | 0.00 | 0.00 | 0.00 | 85 | 1013.9 |
| 20260507043704 | 62 | 332 | 0.0 | 2.0 | 0.00 | 0.00 | 0.00 | 85 | 1014.0 |
| 20260507043203 | 62 | 13 | 0.0 | 1.0 | 0.00 | 0.00 | 0.00 | 85 | 1013.9 |
| 20260507042204 | 62 | 351 | 0.0 | 3.0 | 0.00 | 0.00 | 0.00 | 85 | 1013.9 |
| 20260507041703 | 62 | 352 | 0.0 | 3.0 | 0.00 | 0.00 | 0.00 | 85 | 1013.7 |
| 20260507041203 | 62 | 349 | 0.0 | 2.0 | 0.00 | 0.00 | 0.00 | 85 | 1013.9 |
| 20260507040704 | 62 | 319 | 1.0 | 3.0 | 0.00 | 0.00 | 0.00 | 84 | 1014.0 |
| 20260507035703 | 62 | 307 | 0.0 | 3.0 | 0.00 | 0.00 | 0.00 | 84 | 1013.8 |
| 20260507035203 | 62 | 355 | 0.0 | 1.0 | 0.00 | 0.00 | 0.00 | 84 | 1014.0 |
| 20260507034704 | 62 | 319 | 0.0 | 5.0 | 0.00 | 0.00 | 0.00 | 84 | 1013.8 |
| 20260507034204 | 62 | 44 | 0.0 | 5.0 | 0.00 | 0.00 | 0.00 | 84 | 1013.7 |
| 20260507033703 | 63 | 58 | 0.0 | 1.0 | 0.00 | 0.00 | 0.00 | 84 | 1013.4 |
| 20260507033204 | 63 | 37 | 0.0 | 3.0 | 0.00 | 0.00 | 0.00 | 84 | 1013.4 |
| 20260507032704 | 63 | 341 | 0.0 | 8.0 | 0.00 | 0.00 | 0.00 | 84 | 1013.6 |
| 20260507032203 | 63 | 316 | 0.0 | 5.0 | 0.00 | 0.00 | 0.00 | 84 | 1013.7 |
| 20260507031703 | 63 | 153 | 0.0 | 1.0 | 0.00 | 0.00 | 0.00 | 84 | 1013.3 |
| 20260507030203 | 63 | 310 | 0.0 | 3.0 | 0.00 | 0.00 | 0.00 | 85 | 1013.9 |
| 20260507025704 | 63 | 168 | 0.0 | 1.0 | 0.00 | 0.00 | 0.00 | 85 | 1013.4 |
| 20260507024703 | 63 | 69 | 0.0 | 1.0 | 0.00 | 0.00 | 0.00 | 85 | 1013.0 |
| 20260507024203 | 63 | 41 | 0.0 | 1.0 | 0.00 | 0.00 | 0.00 | 85 | 1012.7 |
| 20260507023703 | 63 | 357 | 0.0 | 3.0 | 0.00 | 0.00 | 0.00 | 85 | 1012.6 |
| 20260507023203 | 63 | 3 | 0.0 | 2.0 | 0.00 | 0.00 | 0.00 | 85 | 1013.0 |
| 20260507022703 | 63 | 316 | 0.0 | 1.0 | 0.00 | 0.00 | 0.00 | 85 | 1012.6 |
| 20260507022204 | 63 | 306 | 0.0 | 1.0 | 0.00 | 0.00 | 0.00 | 84 | 1012.5 |
| 20260507021704 | 63 | 6 | 0.0 | 1.0 | 0.00 | 0.00 | 0.00 | 84 | 1012.3 |
| 20260507021204 | 63 | 10 | 0.0 | 0.0 | 0.00 | 0.00 | 0.00 | 84 | 1012.2 |
| 20260507020703 | 63 | 329 | 0.0 | 1.0 | 0.00 | 0.00 | 0.00 | 84 | 1013.1 |
| 20260507020203 | 63 | 339 | 0.0 | 0.0 | 0.00 | 0.00 | 0.00 | 84 | 1013.1 |
| 20260507015203 | 63 | 27 | 0.0 | 1.0 | 0.00 | 0.00 | 0.00 | 84 | 1011.9 |
| 20260507014703 | 63 | 90 | 0.0 | 3.0 | 0.00 | 0.00 | 0.00 | 84 | 1012.2 |
| 20260507014204 | 63 | 319 | 0.0 | 0.0 | 0.00 | 0.00 | 0.00 | 84 | 1012.0 |
| 20260507013203 | 63 | 41 | 0.0 | 0.0 | 0.00 | 0.00 | 0.00 | 84 | 1012.2 |
| 20260507012703 | 63 | 308 | 0.0 | 0.0 | 0.00 | 0.00 | 0.00 | 84 | 1011.9 |
| 20260507012203 | 63 | 67 | 0.0 | 2.0 | 0.00 | 0.00 | 0.00 | 84 | 1012.0 |
| 20260507011703 | 63 | 338 | 0.0 | 1.0 | 0.00 | 0.00 | 0.00 | 84 | 1011.8 |
| 20260507011203 | 63 | 354 | 0.0 | 0.0 | 0.00 | 0.00 | 0.00 | 84 | 1011.9 |
| 20260507010704 | 63 | 304 | 0.0 | 1.0 | 0.00 | 0.00 | 0.00 | 84 | 1011.6 |
| 20260507010203 | 63 | 339 | 0.0 | 3.0 | 0.00 | 0.00 | 0.00 | 84 | 1011.5 |
| 20260507005704 | 63 | 47 | 0.0 | 1.0 | 0.00 | 0.00 | 0.00 | 84 | 1011.3 |
| 20260507005204 | 63 | 352 | 0.0 | 1.0 | 0.00 | 0.00 | 0.00 | 83 | 1011.4 |
| 20260507004703 | 63 | 328 | 0.0 | 5.0 | 0.00 | 0.00 | 0.00 | 83 | 1011.3 |
| 20260507004203 | 63 | 312 | 1.0 | 5.0 | 0.00 | 0.00 | 0.00 | 83 | 1011.3 |
| 20260507003703 | 63 | 305 | 0.0 | 2.0 | 0.00 | 0.00 | 0.00 | 83 | 1011.1 |
| 20260507003203 | 63 | 8 | 1.0 | 5.0 | 0.00 | 0.00 | 0.00 | 83 | 1011.3 |
| 20260507002703 | 63 | 326 | 1.0 | 3.0 | 0.00 | 0.00 | 0.00 | 83 | 1011.2 |
| 20260507002203 | 63 | 272 | 0.0 | 0.0 | 0.00 | 0.00 | 0.00 | 83 | 1011.0 |
| 20260507001704 | 63 | 345 | 1.0 | 5.0 | 0.00 | 0.00 | 0.00 | 83 | 1011.1 |
| 20260507001203 | 64 | 10 | 1.0 | 3.0 | 0.00 | 0.00 | 0.00 | 83 | 1010.9 |
| 20260507000704 | 64 | 16 | 2.0 | 9.0 | 0.00 | 0.00 | 0.00 | 83 | 1011.1 |
| 20260507000205 | 64 | 4 | 2.0 | 8.0 | 0.00 | 0.00 | 0.00 | 82 | 1011.0 |
| 20260506235204 | 64 | 280 | 3.0 | 8.0 | 0.00 | 0.00 | 0.00 | 82 | 1010.9 |
| 20260506234704 | 64 | 334 | 2.0 | 8.0 | 0.00 | 0.00 | 0.00 | 82 | 1010.8 |
| 20260506234203 | 64 | 355 | 3.0 | 8.0 | 0.00 | 0.00 | 0.00 | 82 | 1010.8 |
| 20260506232703 | 64 | 302 | 3.0 | 9.0 | 0.00 | 0.00 | 0.00 | 81 | 1010.8 |
| 20260506232203 | 65 | 267 | 4.0 | 9.0 | 0.00 | 0.00 | 0.00 | 80 | 1010.8 |
| 20260506231703 | 65 | 287 | 4.0 | 10.0 | 0.00 | 0.00 | 0.00 | 80 | 1010.6 |
| 20260506231204 | 65 | 11 | 3.0 | 10.0 | 0.00 | 0.00 | 0.00 | 80 | 1010.6 |
| 20260506230703 | 65 | 349 | 2.0 | 9.0 | 0.00 | 0.00 | 0.00 | 80 | 1010.5 |
| 20260506225703 | 66 | 281 | 3.0 | 10.0 | 0.00 | 0.00 | 0.00 | 79 | 1010.4 |
| 20260506225204 | 66 | 345 | 3.0 | 8.0 | 0.00 | 0.00 | 0.00 | 79 | 1010.3 |
| 20260506224704 | 66 | 315 | 3.0 | 9.0 | 0.00 | 0.00 | 0.00 | 78 | 1010.3 |
| 20260506223704 | 67 | 327 | 3.0 | 10.0 | 0.00 | 0.00 | 0.00 | 78 | 1010.3 |
| 20260506223204 | 67 | 359 | 2.0 | 7.0 | 0.00 | 0.00 | 0.00 | 78 | 1010.3 |
| 20260506222204 | 68 | 343 | 3.0 | 8.0 | 0.00 | 0.00 | 0.00 | 77 | 1010.4 |
| 20260506221704 | 68 | 288 | 4.0 | 9.0 | 0.00 | 0.00 | 0.00 | 76 | 1010.2 |
| 20260506220703 | 69 | 12 | 3.0 | 9.0 | 0.00 | 0.00 | 0.00 | 76 | 1010.1 |
| 20260506220204 | 70 | 327 | 3.0 | 10.0 | 0.00 | 0.00 | 0.00 | 75 | 1010.0 |
| 20260506215704 | 70 | 329 | 4.0 | 9.0 | 0.00 | 0.00 | 0.00 | 76 | 1009.8 |
| 20260506215204 | 70 | 16 | 4.0 | 12.0 | 0.00 | 0.00 | 0.00 | 77 | 1009.9 |
| 20260506214704 | 70 | 303 | 3.0 | 10.0 | 0.00 | 0.00 | 0.00 | 76 | 1009.9 |
| 20260506214203 | 70 | 26 | 3.0 | 12.0 | 0.00 | 0.00 | 0.00 | 76 | 1009.7 |
| 20260506213204 | 71 | 335 | 2.0 | 10.0 | 0.00 | 0.00 | 0.00 | 78 | 1009.6 |
| 20260506212204 | 71 | 325 | 4.0 | 10.0 | 0.00 | 0.00 | 0.00 | 77 | 1009.9 |
| 20260506211703 | 71 | 347 | 5.0 | 10.0 | 0.00 | 0.00 | 0.00 | 77 | 1010.1 |
| 20260506211204 | 71 | 283 | 4.0 | 12.0 | 0.00 | 0.00 | 0.00 | 77 | 1010.1 |